sat.trackr.live / text

‹ back to catalog

STARLINK-32844

NORAD 62820 · 2025-018Q

PAYLOAD ACTIVE UNKNOWN

§ Identity

Operator
Country
US
Launch date
2025-01-24
Launch site
AFWTR
Launch vehicle
Mass (kg)
RCS (m²)

Purposes: comms

External: N2YO · Heavens-Above · Gunter

§ Orbital elements

Epoch: 2026-05-25T04:22:33.510720Z

Period
94.01 min
Inclination
53.1607°
Eccentricity
0.0000772
Mean motion
15.31716866 rev/d
Perigee alt
470.2 km
Apogee alt
471.2 km
Semi-major
6,848.8 km
B*
5.0559e-4
RAAN
314.0213°
Arg perigee
98.4650°
Mean anomaly
261.6439°
Rev number
7,488

§ Raw data

STARLINK-328441 62820U 25018Q   26145.18233230  .00015365  00000+0  50559-3 0  99902 62820  53.1607 314.0213 0000772  98.4650 261.6439 15.31716866 74886

JSON: /api/v1/satellites/62820 · /tle

For live sub-satellite position, see the globe view (requires WebGL).

§ Visibility from observer

Set your observer location to see the next 7 days of passes ≥ 10°. The values pass through the URL so the page stays shareable.

No JS? Fill the form by hand. The geolocation button needs JavaScript.